This is the latest recevied weather packets stored in our database for station/object VK5KX. If no packets are shown the sender has not sent any weather packets the latest 10 day(s).
| Time | Temp. | Humidity | Pressure | Rain* | Wind** | Luminosity | Snow |
|---|---|---|---|---|---|---|---|
| 1777951809 | 17.22° C | 65% | 1023.3 hPa | 0 mm | - | - | - |
| 1777950914 | 17.22° C | 66% | 1023.5 hPa | 0 mm | - | - | - |
| 1777950007 | 17.22° C | 66% | 1023.6 hPa | 0 mm | - | - | - |
| 1777949104 | 17.22° C | 67% | 1023.9 hPa | 0 mm | - | - | - |
| 1777948208 | 16.67° C | 68% | 1024 hPa | 0 mm | - | - | - |
| 1777947303 | 16.67° C | 70% | 1024.1 hPa | 0 mm | - | - | - |
| 1777946401 | 16.67° C | 71% | 1024.2 hPa | 0 mm | - | - | - |
| 1777945569 | 16.11° C | 73% | 1024.3 hPa | 0 mm | - | - | - |
| 1777944655 | 15.56° C | 81% | 1024.3 hPa | 0 mm | - | - | - |
| 1777943762 | 15° C | 83% | 1024.1 hPa | 0 mm | - | - | - |
| 1777942849 | 15° C | 88% | 1024.1 hPa | 0 mm | - | - | - |
| 1777941946 | 14.44° C | 91% | 1024 hPa | 0 mm | - | - | - |
| 1777941042 | 14.44° C | 93% | 1023.8 hPa | 0 mm | - | - | - |
| 1777940142 | 14.44° C | 95% | 1023.7 hPa | 0 mm | - | - | - |
| 1777939254 | 14.44° C | 95% | 1023.6 hPa | 0 mm | - | - | - |
| 1777938346 | 14.44° C | 95% | 1023.6 hPa | 0 mm | - | - | - |
| 1777937455 | 13.89° C | 95% | 1023.5 hPa | 0 mm | - | - | - |
| 1777936538 | 13.89° C | 95% | 1023.5 hPa | 0 mm | - | - | - |
| 1777935637 | 13.89° C | 95% | 1023.4 hPa | 0 mm | - | - | - |
| 1777934737 | 13.33° C | 95% | 1023.2 hPa | 0 mm | - | - | - |
| 1777933852 | 13.33° C | 95% | 1023.1 hPa | 0 mm | - | - | - |
| 1777932931 | 12.78° C | 95% | 1022.9 hPa | 0.25 mm | - | - | - |
| 1777932028 | 12.78° C | 95% | 1022.8 hPa | 0.25 mm | - | - | - |
| 1777931127 | 12.78° C | 95% | 1022.6 hPa | 0.25 mm | - | - | - |
| 1777930237 | 12.78° C | 95% | 1022.5 hPa | 0.25 mm | - | - | - |
* Rain latest hour (hover to see other rain measurements)
** Current wind speed in m/s (hover to see current wind gust speed)